Lexington Weather

Lexington, Massachusetts, USA

79°F
7/4/2020 12:50pm 
  • Lexington Conditions: Mostly cloudy
  • Temperature: 79.2°F / 26.2°CWarmer 6.9°F than last hour.
  • Dew Point: 67.3°FIncreased 1.5°Fsince last hour.
  • Relative Humidity: 67%Decreased 13.0% since last hour.
  • Wind: Calm, 10-min avg: Calm, gust: None
  • Barometer: 29.88 in Steady
  • Visibility: 10 miles
  • Rain Today: 0.01 in
  •   

Regional Weather Roundup
for Boston / Norton, MA

        
000
ASUS41 KBOX 301804
RWRBOX

REGIONAL WEATHER ROUNDUP
NATIONAL WEATHER SERVICE BOSTON/NORTON MA
200 PM EDT TUE JUN 30 2020

NOTE:  "FAIR" INDICATES FEW OR NO CLOUDS BELOW 12,000 FEET WITH NO 
SIGNIFICANT WEATHER AND/OR OBSTRUCTIONS TO VISIBILITY.

MAZALL-301900-
EASTERN MASSACHUSETTS
  
CITY           SKY/WX    TMP DP  RH WIND       PRES   REMARKS
BOSTON         LGT RAIN  65  64  97 E5        29.92S                  
6HR MIN TEMP:  64; 6HR MAX TEMP:  68; 6HR PCP:  0.14;                

BEVERLY        LGT RAIN  65  63  93 N8        29.91F                  
LAWRENCE       CLOUDY    69  63  81 E7        29.93F                  
BEDFORD        LGT RAIN  73  64  73 E8        29.90F                  
BLUE HILL        N/A     67  63  87 VRB6      29.91F                  
NORWOOD        CLOUDY    70  63  78 SE5       29.91F                  
MARSHFIELD     CLOUDY    72  66  83 N8        29.90F                  
PLYMOUTH       CLOUDY    71  64  78 NE9       29.90S                  
TAUNTON        CLOUDY    72  64  76 N8        29.89F                  
NEW BEDFORD    HVY RAIN  69  67  93 CALM      29.89R FOG              
$$

MAZALL-301900-
CAPE COD AND THE ISLANDS
  
CITY           SKY/WX    TMP DP  RH WIND       PRES   REMARKS
FALMOUTH       PTSUNNY   72  64  78 NE9       29.90S                  
HYANNIS        CLOUDY    76  65  68 N12       29.88S                  
CHATHAM        PTSUNNY   74  64  71 VRB5      29.89F                  
PROVINCETOWN   CLOUDY    69  65  86 N9        29.91S                  
NANTUCKET      CLOUDY    70  65  84 SE7       29.89F                  
MARTHAS VNYRD  CLOUDY    70  64  81 SW8       29.89S                  
$$
 
MAZALL-301900-
CENTRAL AND WESTERN MASSACHUSETTS
  
CITY           SKY/WX    TMP DP  RH WIND       PRES   REMARKS
WORCESTER      PTSUNNY   70  63  78 VRB3      29.92F                  
6HR MIN TEMP:  62; 6HR MAX TEMP:  69; 6HR PCP:  0.02;                

FITCHBURG      PTSUNNY   75  62  64 VRB6      29.91F                  
ORANGE         PTSUNNY   75  63  66 VRB5      29.91F                  
SPRINGFIELD    CLOUDY    73  64  74 NW7       29.89F                  
WESTFIELD      PTSUNNY   72  64  76 N7        29.90F                  
NORTH ADAMS    CLOUDY    71  65  81 VRB5      29.91F                  
PITTSFIELD     CLOUDY    74  62  66 VRB3      29.92S                  
$$
 
RIZALL-301900-
RHODE ISLAND
  
CITY           SKY/WX    TMP DP  RH WIND       PRES   REMARKS
PROVIDENCE     PTSUNNY   74  63  68 E7        29.90S                  
6HR MIN TEMP:  67; 6HR MAX TEMP:  75;                                

NEWPORT        CLOUDY    72  64  76 S5        29.90S                  
BLOCK ISLAND   CLOUDY    71  63  75 S7        29.91S                  
SMITHFIELD     CLOUDY    72  65  78 E8        29.91F                  
WESTERLY       CLOUDY    72  62  71 S9        29.91S                  
$$
 
CTZALL-301900-
CONNECTICUT
  
CITY           SKY/WX    TMP DP  RH WIND       PRES   REMARKS
BRADLEY INTL   PTSUNNY   75  61  61 NE9       29.89F                  
6HR MIN TEMP:  65; 6HR MAX TEMP:  77; 6HR PCP: TRACE;                

HARTFORD       CLOUDY    72  66  81 S7        29.90S                  
BRIDGEPORT     CLOUDY    70  66  87 NE8       29.91R THUNDER          
DANBURY        LGT RAIN  70  64  81 N8        29.92S                  
GROTON         CLOUDY    68  63  84 CALM      29.90S                  
NEW HAVEN      LGT RAIN  70  67  90 SE5       29.91S                  
CHESTER        NOT AVBL                                               
MERIDEN        NOT AVBL                                               
WILLIMANTIC    CLOUDY    76  63  64 NE7       29.89F                  
OXFORD         CLOUDY    70  64  81 E9        29.93S                  
$$

MEZ002-015-021-024-NHZ003-005-008-011-012-014-VTZ005-008-301900-
NORTHERN NEW ENGLAND
  
CITY           SKY/WX    TMP DP  RH WIND       PRES   REMARKS
PORTLAND ME    CLOUDY    69  63  81 E15       29.94S                  
6HR MIN TEMP:  65; 6HR MAX TEMP:  69; 6HR PCP:  0.02;                

BANGOR ME      CLOUDY    69  65  86 NE12      29.95F                  
CONCORD NH     CLOUDY    75  64  68 NE9       29.91F                  
MANCHESTER NH  PTSUNNY   76  63  64 E8        29.89F                  
NASHUA NH      PTSUNNY   76  65  68 E10G18    29.91F                  
PORTSMOUTH NH  CLOUDY    68  62  78 NE7       29.91F                  
JAFFREY NH     PTSUNNY   72  63  73 VRB3      29.93F                  
KEENE NH       PTSUNNY   75  62  64 CALM      29.91F                  
BURLINGTON VT  PTSUNNY   77  63  61 N17       29.94F                  
MT. WASHINGTON NOT AVBL                                               
$$

NYZ052-076-301900-
EASTERN NEW YORK
  
CITY           SKY/WX    TMP DP  RH WIND       PRES   REMARKS
ALBANY         PTSUNNY   79  63  57 VRB5      29.90F                  
6HR MIN TEMP:  68; 6HR MAX TEMP:  79;                                

NEW YORK CITY  PTSUNNY   79  61  53 W6        29.88F                  
6HR MIN TEMP:  73; 6HR MAX TEMP:  79; 6HR PCP: TRACE;                

$$
 
ANZALL-301900-
MARINE OBSERVATIONS
  
STATION/POSITION TIME  TEMP    WIND        PRES    VSBY  WAVE
                       AIR SEA DIR/SP/G                  HT/PER
                 (UTC) (F)     (DEG/KT/KT) (MB)    (MI)  (FT/S)
BOSTON BUOY      1750   65 67  360/ 10/ 12 1011.8F         2/ 9
BUZZARDS BAY     1700          240/  4/  4 1013.4F
NANTUCKET SOUND  1750   69 71  360/  8/ 10 1011.5S         1/ 5
MASS BAY-STELLWA 1704   63      40/ 10/ 10 1011.0F  1 7/8  3/ 8
ISLE OF SHOALS   1700   60      20/ 14/ 15 1012.9F
S OF BLOCK IS    1726      72                N/A           3/ 8
$$

......................KEY.........................
  SKY/WX - SKY CONDITION/PRESENT WEATHER
  TMP    - TEMPERATURE IN FAHRENHEIT
  DWPT   - DEWPOINT IN FAHRENHEIT
  RH     - RELATIVE HUMIDITY IN PERCENT
  WIND   - DIRECTION AND SPEED IN MPH
  PRES   - MEAN SEA LEVEL PRESSURE IN INCHES OF HG
  WCI    - WIND CHILL INDEX
  VSB    - VISIBILITY IN MILES
  HX     - HEAT INDEX
  TC     - TEMPERATURE IN CELSIUS
  VRB    - VARIABLE WIND DIRECTION
  N/A    - NOT AVAILABLE
  
      

Other recent Regional Weather Roundups

Sat Jul 4, 12:05pm

Sat Jul 4, 11:04am

Sat Jul 4, 10:04am

Sat Jul 4, 9:04am

Sat Jul 4, 8:04am

Sat Jul 4, 7:04am

Sat Jul 4, 6:04am

Sat Jul 4, 5:04am

Sat Jul 4, 4:04am

Sat Jul 4, 3:05am

Sat Jul 4, 2:04am

Sat Jul 4, 1:04am

Sat Jul 4, 12:04am

Fri Jul 3, 11:04pm

Fri Jul 3, 10:04pm

Fri Jul 3, 9:04pm

Fri Jul 3, 8:04pm

Fri Jul 3, 7:04pm

Fri Jul 3, 6:04pm

Fri Jul 3, 5:04pm

Fri Jul 3, 4:04pm

Fri Jul 3, 3:04pm

Fri Jul 3, 2:04pm

Fri Jul 3, 1:04pm

Fri Jul 3, 12:04pm

Fri Jul 3, 11:04am

Fri Jul 3, 10:04am

Fri Jul 3, 9:04am

Fri Jul 3, 8:04am

Fri Jul 3, 7:04am

Fri Jul 3, 6:04am

Fri Jul 3, 5:04am

Fri Jul 3, 4:04am

Fri Jul 3, 3:04am

Fri Jul 3, 2:04am

Fri Jul 3, 1:04am

Fri Jul 3, 12:04am

Thu Jul 2, 11:05pm

Thu Jul 2, 10:04pm

Thu Jul 2, 9:04pm

Thu Jul 2, 8:04pm

Thu Jul 2, 7:05pm

Thu Jul 2, 6:04pm

Thu Jul 2, 5:05pm

Thu Jul 2, 4:04pm

Thu Jul 2, 3:04pm

Thu Jul 2, 2:04pm

Thu Jul 2, 1:05pm

Thu Jul 2, 12:04pm

Thu Jul 2, 11:04am

Thu Jul 2, 10:05am

Thu Jul 2, 9:05am

Thu Jul 2, 8:04am

Thu Jul 2, 7:04am

Thu Jul 2, 6:05am

Thu Jul 2, 5:04am

Thu Jul 2, 4:04am

Thu Jul 2, 3:04am

Thu Jul 2, 2:04am

Thu Jul 2, 1:04am

Thu Jul 2, 12:05am

Wed Jul 1, 11:05pm

Wed Jul 1, 10:04pm

Wed Jul 1, 9:04pm

Wed Jul 1, 8:04pm

Wed Jul 1, 7:04pm

Wed Jul 1, 6:04pm

Wed Jul 1, 5:05pm

Wed Jul 1, 4:04pm

Wed Jul 1, 3:04pm

Wed Jul 1, 2:04pm

Wed Jul 1, 1:04pm

Wed Jul 1, 12:04pm

Wed Jul 1, 11:04am

Wed Jul 1, 10:04am

Wed Jul 1, 9:04am

Wed Jul 1, 8:05am

Wed Jul 1, 7:04am

Wed Jul 1, 6:04am

Wed Jul 1, 5:04am

Wed Jul 1, 4:04am

Wed Jul 1, 3:04am

Wed Jul 1, 2:04am

Wed Jul 1, 1:04am

Wed Jul 1, 12:04am

Tue Jun 30, 11:04pm

Tue Jun 30, 10:05pm

Tue Jun 30, 9:04pm

Tue Jun 30, 8:05pm

Tue Jun 30, 7:05pm

Tue Jun 30, 6:04pm

Tue Jun 30, 5:04pm

Tue Jun 30, 4:04pm

Tue Jun 30, 3:04pm

Tue Jun 30, 1:04pm

Tue Jun 30, 12:04pm

Tue Jun 30, 11:04am

Tue Jun 30, 10:04am

Tue Jun 30, 9:04am

Tue Jun 30, 8:04am

Tue Jun 30, 7:04am

Tue Jun 30, 6:04am

Tue Jun 30, 5:04am

Tue Jun 30, 4:04am

Tue Jun 30, 3:04am

Tue Jun 30, 2:04am

Tue Jun 30, 1:04am

Tue Jun 30, 12:04am

Mon Jun 29, 11:04pm

Mon Jun 29, 10:05pm

Mon Jun 29, 9:04pm

Mon Jun 29, 8:05pm

Mon Jun 29, 7:04pm

Mon Jun 29, 6:04pm

Mon Jun 29, 5:04pm

Mon Jun 29, 4:05pm

Mon Jun 29, 3:04pm

Mon Jun 29, 2:04pm

Mon Jun 29, 1:04pm

Mon Jun 29, 12:04pm

Mon Jun 29, 11:04am

Mon Jun 29, 10:04am

Mon Jun 29, 9:04am

Mon Jun 29, 8:04am

Mon Jun 29, 7:04am

Mon Jun 29, 6:04am

Mon Jun 29, 5:04am

Mon Jun 29, 4:04am

Mon Jun 29, 3:04am

Mon Jun 29, 2:04am

Mon Jun 29, 1:04am

Mon Jun 29, 12:04am

Sun Jun 28, 11:05pm

Sun Jun 28, 10:04pm

Sun Jun 28, 9:05pm

Sun Jun 28, 8:04pm

Sun Jun 28, 7:04pm

Sun Jun 28, 6:04pm

Sun Jun 28, 5:04pm

Sun Jun 28, 4:04pm

Sun Jun 28, 3:04pm

Sun Jun 28, 2:05pm

Sun Jun 28, 1:04pm

Sun Jun 28, 12:04pm

Sun Jun 28, 11:04am

Sun Jun 28, 10:04am

Sun Jun 28, 9:04am

Sun Jun 28, 8:04am

Sun Jun 28, 7:04am

Sun Jun 28, 6:04am

Sun Jun 28, 5:04am

Sun Jun 28, 4:04am

Sun Jun 28, 3:04am

Sun Jun 28, 2:05am

Sun Jun 28, 1:04am

Sun Jun 28, 12:05am

Sat Jun 27, 11:04pm

Sat Jun 27, 10:04pm

Sat Jun 27, 9:04pm

Sat Jun 27, 8:04pm

Sat Jun 27, 7:04pm

Sat Jun 27, 6:04pm

Sat Jun 27, 5:04pm

Sat Jun 27, 4:05pm

Sat Jun 27, 3:04pm

Sat Jun 27, 2:04pm

Sat Jun 27, 1:05pm

Meta data:

ID: fcbc4d5f-223a-40f4-9c12-96ac873986ab
Link: https://api.weather.gov/products/fcbc4d5f-223a-40f4-9c12-96ac873986ab